FENGYUN 1C DEB

Satellite information

Favourite Embed

Satellite Type and Status

DEBRISIN ORBIT

Key statistics

Satellite FENGYUN 1C DEB at a glance.

Uptime

9498

Days in orbit

Revolutions

≈ 13.8

Per day

Orbit

SSO

Sun Synchronous Orbit

Inclination

98.7

Latest

Satellite identification and parameters

Extended collection of information and parameters for FENGYUN 1C DEB.

Object identification

Identified? True

Debris? True

Object name: FENGYUN 1C DEB

International designator: 1999-025CUN

Object number (NORAD): 32192

Object ID (CCSDS): 32192

Country: PEOPLES REPUBLIC OF CHINA (PRC)

Current information (Y/N): Y

RCS size: SMALL

Orbital parameters

Period: 104.172 minutes

Inclination: 98.6832 deg

SMA: 7333.788 km

Apoapsis: 1090.042 km

Periapsis: 821.263 km

RAAN: 16.7989 deg

Eccentricy: 0.0183247

Argument of periapsis: 34.1475 deg

Mean anomaly: 327.1311 deg

Mean motion: 13.82325266 rev/day

Mean motion (dot): 0.00000483 rev/day2

B* drag term: 0.00042491 1/REarth

Two-line elements (TLE)

Creation date: May 9, 2025, 2:46 a.m.

Reference frame: TEME

Reference center: EARTH

Epoch: May 8, 2025, 3:33 p.m. UTC

TLE line 0: 0 FENGYUN 1C DEB

TLE line 1: 1 32192U 99025CUN 25128.64845491 .00000483 00000-0 42491-3 0 9999

TLE line 2: 2 32192 98.6832 16.7989 0183247 34.1475 327.1311 13.82325266896991

Live tracking on map

Real-time ground track for satellite FENGYUN 1C DEB.

In-orbit conjunctions

A list of the most updated potential collisions computed for object FENGYUN 1C DEB.

Target Orbit TCA Probability of collision Miss distance Type
COSMOS 1656 LEO 2025-02-09 02:22:18 0.000201969 553.0 (m) PAYLOAD
COSMOS 962 LEO 2025-01-04 18:38:40 0.0006992748 402.0 (m) PAYLOAD
COSMOS 860 LEO 2024-10-22 03:29:11 0.0005929499 342.0 (m) PAYLOAD

Associated space launch

Chinese polar orbiting meteorological satellite

FENGYUN 1C DEB was lifted into orbit during the mission ‘Long March 4B | Feng Yun 1C’, on board a Long March 4B space rocket.

The launch took place on May 10, 1999, 1:33 a.m. from Launch Complex 7.

For more information about the launch, click the button.

Launch to space Long March 4B | Feng Yun 1C
Long March 4B | Feng Yun 1C

Agency: N/A

Status: Launch Successful

Launch date: May 10, 1999, 1:33 a.m. UTC

Rocket: Long March 4B

Launch pad: Launch Complex 7

Location: Taiyuan Satellite Launch Center, People's Republic of China

...

Latest news about this satellite

There are no fresh news available about this satellite. Check back as we update our databases every day.


Newsletter sign-up

Weekly statistics, charts and insights to help you stay on top of the space industry.